Filtrer par Nom Sexe Groupe d'age
Virenque 92km 2004
RG. DOS. TEMPS CAT RG. POINTS
1 2202 JOUAN FREDERICK 02:19:33:000 C 1 0.00 FREJUS, FRANCE
3 222 MAILLET PHILIPPE 02:22:05:000 D 2 0.00 LYON, FRANCE
4 2433 WALTNER ERIC 02:22:42:000 D 3 0.00 COLMAR, FRANCE
5 45 BISCAREL LAURENT 02:22:43:000 D 4 0.00 DRAGUIGNAN, FRANCE
6 2206 OLSTHOORN CHARLES 02:22:43:900 C 2 0.00 GIENS - HYERES, FRANCE
7 2342 VEYRET JACKY 02:22:44:000 E 1 0.00 HYERES, FRANCE
8 2539 PIGAGLIO KEVIN 02:22:44:200 CF 1 0.00 LES SALINS D HYERES, FRANCE
9 2459 CASSAGNE SEBASTIEN 02:22:45:000 C 3 0.00 BRIGNOLES, FRANCE
10 2458 BOULAN OLIVIER 02:22:45:300 D 5 0.00 SALON DE PROVENCE, FRANCE
11 53 HANSEN SEVERINE 02:22:46:600 A 1 0.00 AUBAGNE, FRANCE
12 2469 PARISE ALEXANDRE 02:22:49:000 CF 2 0.00 ROQUEFORT LES PINS, FRANCE
13 2204 ABOULIKAM YANNICK 02:22:57:000 C 4 0.00 LE MUY, FRANCE
14 2443 BOUSSET PATRICK 02:26:19:000 E 2 0.00 BORMES LES MIMOSAS, FRANCE
15 2164 HUBERT RICHARD 02:26:29:000 E 3 0.00 CARQUEIRANNE, FRANCE
16 2541 ROUILLON JORIS 02:26:29:000 CF 3 0.00 CARQUEIRANNE, FRANCE
17 56 ORTIZ JEREMY 02:26:30:700 C 5 0.00 PUGET SUR ARGENS, FRANCE
18 2551 MADONNA JULIEN 02:26:31:000 CF 4 0.00 LA GARDE, FRANCE
19 2402 ASCOLETTI CHRISTIAN 02:26:31:500 E 4 0.00 PIERREFEU, FRANCE
20 2457 MATTEI GUY 02:27:05:000 E 5 0.00 GARCOULT, FRANCE
21 2166 GRAS STEPHANE 02:27:09:000 D 6 0.00 HYERES, FRANCE
22 2068 BROCCARDO JEAN-MARC 02:27:11:000 E 6 0.00 HYERES, FRANCE
23 2368 SCARRONE ANDRE 02:27:11:400 F 1 0.00 HYERES, FRANCE
24 2117 DUPONT DIDIER 02:27:12:000 E 7 0.00 ROCBARON, FRANCE
25 2143 CARNIEL JEAN-MARIE 02:27:15:000 E 8 0.00 OLLIOULES, FRANCE
26 2385 GERARD PHILIPPE 02:27:15:000 D 7 0.00 ESSEY LES NANCY, FRANCE
27 2442 DERRIEN STEPHANE 02:27:15:000 D 8 0.00 TOULON, FRANCE
28 2554 BAUDRY GAETAN 02:27:15:000 CF 5 0.00 ST MARTIN DE PALLIERES, FRANCE
29 2473 WOJTINEK BRUNO 02:27:16:000 E 9 0.00 LILLE, FRANCE
30 2522 BARALE MATHIEU 02:27:16:000 CF 6 0.00 GRIMAUD, FRANCE
31 2 PROST ALAIN 02:27:17:000 E 10 0.00 ST PIERRE DU PERRAY, FRANCE
32 2335 BONFILS FRANCOIS 02:27:17:000 E 11 0.00 LA FARLEDE, France
33 2207 OLSTHOORN CHRISTIAN 02:27:23:000 C 6 0.00 HYERES, FRANCE
34 2244 PULIDORI JEROME 02:27:25:000 C 7 0.00 LE CANNET, FRANCE
35 19 HUGUES DENIS 02:27:25:500 E 12 0.00 , FRANCE
36 241 SOCQUET ROBERT 02:32:22:000 D 9 0.00 FREJUS, FRANCE
37 2072 BERTIN PATRICK 02:32:24:000 E 13 0.00 CALLAS, FRANCE
38 2124 CORTEGLANNI J.MARIE 02:32:24:000 E 14 0.00 SANARY, FRANCE
39 33 FLESCH FRITS 02:32:25:000 F 2 0.00 Utrecht, Pays-Bas
40 2094 DEMEUSY JACQUES 02:32:26:700 F 3 0.00 VILLERS LE SEC, FRANCE
41 2304 BAZILLE PASCAL 02:32:27:000 E 15 0.00 HYERES, FRANCE
42 2130 ROUX ARNAUD 02:32:27:200 C 8 0.00 SIX FOURS LES PLAGES, FRANCE
43 788 FLORES MICHAEL 02:32:28:000 D 10 0.00 LA SEYNE S/MER, FRANCE
44 2346 CHABOT GILLES 02:32:29:900 F 4 0.00 REMOLLON, FRANCE
45 2372 LECARPENTIER CHRISTIAN 02:32:30:000 F 5 0.00 BRETTEVILLE L'ORGUEILLEUS, FRANCE
46 2431 ARGANT THIERRY 02:32:30:000 E 16 0.00 VILLENEUVE, FRANCE
47 2330 GIRAUD DIDIER 02:32:30:400 E 17 0.00 LA GARDE, FRANCE
48 2276 VANOLI THIERRY 02:32:31:000 E 18 0.00 ST CYR SUR MER, FRANCE
49 2296 LORENT JEAN FRANCOIS 02:32:31:000 D 11 0.00 LA LONDE LES MAURES, FRANCE
50 2149 BERTET ALAIN 02:32:31:700 F 6 0.00 SANARY, FRANCE
51 2129 LEJEUNE PIERRE ANTOINE 02:32:32:000 D 12 0.00 LA GARDE, FRANCE
52 2141 GAYRAUD FABRICE ET CHRISTOPHE 02:32:32:000 D 13 0.00 TOULON, FRANCE
53 2179 LANGUILLE MARCEL 02:32:32:000 G 1 0.00 TOULON, FRANCE
54 2150 VALLEE BERNARD 02:32:33:000 F 7 0.00 BANDOL, FRANCE
55 2449 DELABASSERUE SEBASTIEN 02:32:35:000 CF 7 0.00 LA CROIX VALMER, FRANCE
56 2477 CARACCIOLI ARNAUD 02:32:35:000 C 9 0.00 NICE, FRANCE
57 2421 CHAPALAIN CHRISTOPHE 02:32:35:900 D 14 0.00 HYERES, FRANCE
58 2170 SALOTTI JEAN MARC 02:32:36:000 D 15 0.00 ST FLORENT, FRANCE
59 2169 BURCHIELLO GERARD 02:32:37:000 E 19 0.00 HYERES, FRANCE
60 2221 CALABRO PHILIPPE 02:32:37:000 E 20 0.00 MARSEILLE, FRANCE
61 2711 MIRRA NICOLAS 02:32:37:000 CF 8 0.00 BEDARRIDES, FRANCE
62 2734 WOJTIWEK WILLY 02:32:38:000 C 10 0.00 CANNES, FRANCE
63 2370 TAMAGNE MATHIEU 02:32:38:800 CF 9 0.00 HYERES, FRANCE
64 2730 SOLLE PATRICE 02:32:39:800 D 16 0.00 LA SEYNE S/MER, FRANCE
65 2197 HEMISSI MOEZ 02:32:40:000 C 11 0.00 LORGUES, FRANCE
66 2240 LIEBECK MARTIN 02:32:40:000 D 17 0.00 VILLEFRANCHE SUR MER, FRANCE
67 2467 BOISSIER ERIC 02:32:41:000 E 21 0.00 VILLENEUVE LOUBET, FRANCE
68 716 MIQUET RAYMOND 02:32:43:000 D 18 0.00 LA TURBIE, FRANCE
69 2167 CABRERA MARC 02:32:44:600 E 22 0.00 HYERES, FRANCE
70 2137 BRUNET MICHEL 02:32:45:000 F 8 0.00 MARSEILLE, FRANCE
71 2374 ROCHET GERARD 02:32:45:000 G 2 0.00 BARIZEY, FRANCE
72 2400 MANDON WILLIAM 02:32:45:000 D 19 0.00 FLAYOSC, FRANCE
73 2405 CRUNCHANT JULIEN 02:32:45:000 C 12 0.00 LA SEYNE S/MER, FRANCE
75 2223 GARAMBOIS REMI 02:32:47:000 C 13 0.00 LE BEAUSSET, FRANCE
76 2383 RIEHL PATRICK 02:32:47:100 D 20 0.00 MARSEILLE, FRANCE
77 2301 MAURIN YANNICK 02:32:55:000 C 14 0.00 PIGNANS, FRANCE
78 973 ALBERT RICHARD 02:34:33:000 F 9 0.00 OLLIOULES, FRANCE
79 2516 ROMANET FRANCK 02:35:52:000 CF 10 0.00 LA CIOTAT, FRANCE
80 2285 QUADRUPPANI JOEL 02:35:58:000 D 21 0.00 LA LONDE, FRANCE
81 20 DESBEZ THIERRY 02:36:03:000 E 23 0.00 , FRANCE
83 5 CADIOU JACQUES 02:36:09:000 G 3 0.00 ST PIERRE DU PERRAY, FRANCE
85 2222 GARAMBOIS JEROME 02:36:09:900 D 22 0.00 SIX FOURS, FRANCE
86 2138 ROBIC LAURENT 02:36:11:000 C 15 0.00 HYERES, FRANCE
87 2119 ISAIA DIDIER 02:36:11:800 D 23 0.00 LA CRAU, FRANCE
88 2377 BACHELARD DENIS 02:36:12:000 E 24 0.00 TOULON, FRANCE
89 2195 SARAFIAN ERIC 02:36:12:200 D 24 0.00 TOULON, FRANCE
90 3 BELMONDO PAUL 02:36:12:400 E 25 0.00 VAUCRESSON, France
91 2259 PAILLETTE STEPHANE 02:36:12:800 D 25 0.00 MARSEILLE, FRANCE
92 2379 PELLOUX JEAN MARIE 02:36:13:000 F 10 0.00 ROUSSET SUR ARC, FRANCE
93 2533 TARRICO ANDRE 02:36:13:000 E 26 0.00 BRIGNOLES, FRANCE
94 2188 GABRIELLI ROBERT 02:36:13:400 E 27 0.00 MOUANS SARTOUX, FRANCE
95 2003 PASCAL ERNEST 02:36:14:000 E 28 0.00 ANTIBES, FRANCE
96 2158 MIGLIACCIO PHILIPPE 02:36:14:000 C 16 0.00 LA LONDE, FRANCE
97 2441 GANCI PHILIPPE 02:36:14:000 D 26 0.00 LA LONDE, FRANCE
98 2432 SALVATORE SERGE 02:36:14:500 D 27 0.00 HYERES, FRANCE
99 2125 CANTON PHILIPPE 02:36:15:000 E 29 0.00 SIX FOURS, FRANCE
100 2403 GROSSI FREDERIC 02:36:15:000 D 28 0.00 CUERS, FRANCE
101 2585 BAUDRY FABIEN 02:36:15:000 C 17 0.00 ST MARTIN DE PALLIERES, FRANCE
102 2002 BOURGEOLET MARC 02:36:16:000 D 29 0.00 HAUTECOUR, FRANCE
103 2110 WENDLING CLAUDE 02:36:16:000 D 30 0.00 LES ANGLES, FRANCE
104 2581 PONZONE FRANCK 02:36:16:000 D 31 0.00 HYERES, FRANCE
105 2095 DEFAYE PASCAL 02:36:16:300 E 30 0.00 FREJUS, FRANCE
106 2462 BIRGLIN JEAN PIERRE 02:36:17:500 F 11 0.00 NICE, FRANCE
107 2032 LAVIGNE JEAN 02:36:18:000 G 4 0.00 VIMENET, FRANCE
108 2332 GRILLO MICHEL 02:36:18:000 F 12 0.00 HYERES, FRANCE
109 2340 DOUBLET YVON 02:36:18:000 E 31 0.00 LE BAUSSET, FRANCE
110 2434 LE GAL ALAIN 02:36:20:000 D 32 0.00 MARIGNANE, FRANCE
111 2050 MOUTTE RENE 02:36:24:000 E 32 0.00 SANARY, FRANCE
112 2103 DOURNAC JEANN PAUL 02:36:24:000 F 13 0.00 SANARY, FRANCE
113 2454 MISTRAL MICHAEL 02:36:26:000 D 33 0.00 BESSE SUR ISSOLE, FRANCE
114 2273 BOURRET THIERRY 02:36:26:300 E 33 0.00 CASTELNAU LE LEZ, FRANCE
115 2011 GIUFFRA FREDERIC 02:36:27:000 D 34 0.00 BEAUSOLEIL, FRANCE
116 2084 SANTORO GUILLERMO 02:36:28:000 E 34 0.00 LA LONDE LES MAURES, FRANCE
117 2270 LOUCHEL FRANCK 02:36:28:000 D 35 0.00 LE CANNET, FRANCE
118 2012 LAUNOIS ALAIN 02:36:29:000 E 35 0.00 GORBIO, FRANCE
119 2229 GAMBOA JOAQUIM 02:36:30:700 F 14 0.00 BRIGNOLES, FRANCE
120 2542 MESINI GEOFFREY 02:36:31:000 CF 11 0.00 LA GARDE, FRANCE
121 2139 LEUCCI ALAIN 02:36:31:200 D 36 0.00 BEAUSOLEIL, FRANCE
122 2292 VINH MAU THIERRY 02:36:33:000 E 36 0.00 HESPERANGE, France
123 2255 LIZARRALDE JEAN CLAUDE 02:36:34:000 E 37 0.00 NANS LES PINS, FRANCE
124 2474 VANDAMME MARC 02:36:38:200 E 38 0.00 SAINGHIN EN MELANTOIS, FRANCE
125 2005 BRUGUIER FREDERIC 02:37:16:000 E 39 0.00 LA VALETTE, FRANCE
126 2311 VIGNOLO MARCEL 02:40:06:000 F 15 0.00 GAREOULT, FRANCE
127 2538 DONADELLI SEBASTIEN 02:40:06:000 CF 12 0.00 LA CRAU, FRANCE
128 2091 LAUGT MICHEL 02:40:06:800 G 5 0.00 ISTRES, FRANCE
129 2053 CHARDON GILDAS 02:40:07:000 D 37 0.00 HYERES, FRANCE
130 50 TOULIS MARC 02:40:08:000 D 38 0.00 LA GARDE, FRANCE
131 2392 CALLEC PHILIPPE 02:40:08:700 D 39 0.00 LA SEYNE S/MER, FRANCE
132 2168 VITELLI CHRISTIAN 02:40:11:000 E 40 0.00 HYERES, FRANCE
133 2268 GARNERO PASCAL 02:40:11:800 E 41 0.00 MANDELIEU, FRANCE
134 2030 GUEUDET DANIEL 02:40:12:600 F 16 0.00 LA LONDE, FRANCE
135 2177 LONGO DANIEL 02:40:13:000 E 42 0.00 SOLLIES PONT, FRANCE
136 2086 BERNARD DANIEL 02:40:15:000 F 17 0.00 SOLLIES VILLE, FRANCE
137 2080 ROSELLO ANDRE 02:40:17:000 D 40 0.00 LA GARDE, FRANCE
138 2184 DESIDERI LAURENT 02:40:17:000 D 41 0.00 Bastia, France
139 2578 FORTE DANIEL 02:40:17:000 G 6 0.00 TOULON, FRANCE
140 2198 ROZE MICHAEL 02:40:17:100 D 42 0.00 TOULON, FRANCE
141 2413 BALLESTERO DIDIER 02:40:17:100 D 43 0.00 LA SEYNE S/MER, FRANCE
142 2135 GATIMEL JEAN PIERRE 02:40:18:000 F 18 0.00 LOMBERS, FRANCE
143 2076 MENIDREY GUY 02:40:19:200 F 19 0.00 CAISSARGUES, FRANCE
144 48 MAGNALDI THIERRY 02:40:20:300 E 43 0.00 LE BEAUSSET, FRANCE
145 2269 KALB PHILIPPE 02:40:23:000 D 44 0.00 PEYMEINADE, FRANCE
146 741 GUYONNET GUY 02:40:25:000 G 7 0.00 CLUSES, FRANCE
147 2417 VIDAL ANTONIO 02:40:26:000 E 44 0.00 LA SEYNE S/MER, FRANCE
148 2160 ADAM ANNE 02:40:30:000 AB 1 0.00 TOULON, FRANCE
149 2408 GARCIA JEAN LUC 02:40:30:400 E 45 0.00 HYERES, FRANCE
150 2319 FROELIGER CHRISTIAN 02:40:30:800 G 8 0.00 LA GARDE, FRANCE
151 2261 LEFEBVRE LAURENT 02:40:32:000 D 45 0.00 BRIGNOLES, FRANCE
152 2108 VIALLEFONT GERARD 02:40:33:000 F 20 0.00 GATTIERES, FRANCE
153 2464 DONZEL GILLES 02:40:33:000 D 46 0.00 AUBAGNE, FRANCE
154 2401 CAPPY JEAN PIERRE 02:40:33:600 E 46 0.00 CUERS, FRANCE
155 2016 BENOIT PATRICK 02:40:34:000 E 47 0.00 AVIGNON, FRANCE
156 2438 JEANJEAN GERARD 02:40:34:000 F 21 0.00 LE LUC, FRANCE
157 2069 COISY DOMINIQUE 02:40:35:000 F 22 0.00 LA LONDE, FRANCE
159 2356 MOLLA CLAUDE 02:40:36:000 E 48 0.00 TOULON, FRANCE
160 2390 RIGARD CERISON ROGER 02:40:36:000 F 23 0.00 MARSEILLE, FRANCE
161 2399 KAPPELER YVAN 02:40:36:000 E 49 0.00 SEPTEMES LES VALLONS, FRANCE
162 2407 MALLE MARC 02:40:36:000 E 50 0.00 TOULON, FRANCE
163 2537 PATROSSO RICHARD 02:40:37:000 CF 13 0.00 MARSEILLE, FRANCE
164 2440 GONI JEAN CLAUDE 02:40:38:000 E 51 0.00 OLLIOULES, FRANCE
165 2707 ABELA FRANCOIS 02:40:38:000 F 24 0.00 LES ISSAMBRES, FRANCE
166 2256 AUDOUX DANIEL 02:40:38:300 F 25 0.00 MEUDON, FRANCE
167 2294 GRECK STEPHANE 02:40:38:800 D 48 0.00 GREASQUE, FRANCE
168 2161 GRADOZ PHILIPPE 02:40:39:000 E 52 0.00 HYERES, FRANCE
170 2248 MEMORET JEAN PHILIPPE 02:40:40:000 D 49 0.00 LE REVEST LES EAUX, FRANCE
171 2339 HUGON CLAUDE 02:40:40:600 E 53 0.00 LA GARDE, FRANCE
172 2424 PONSOT FREDERIC 02:40:41:000 D 50 0.00 DECINES, FRANCE
173 2049 VALLAURI ALAIN 02:40:42:000 E 54 0.00 ROQUEVAIRE, FRANCE
174 2719 DAISSIER JONATHAN 02:40:42:600 CF 14 0.00 LA ROQUETTE SUR SIAGNE, FRANCE
175 2147 SANTANA ANTOINE (TONY) 02:40:43:000 G 10 0.00 BANDOL, FRANCE
176 2710 MIRRA MICHEL 02:40:43:000 E 55 0.00 BEDARRIDES, FRANCE
177 2347 VEZZOSO GUILLAUME 02:40:45:000 CF 15 0.00 LA VALETTE, FRANCE
178 2437 LE PENNETIER PATRICK 02:40:46:000 F 26 0.00 LA VALETTE, FRANCE
179 2107 LECLERCQ RODOLPHE 02:40:46:900 D 51 0.00 LE CASTELLET, FRANCE
180 2354 TINAZZI CHARLES 02:40:49:700 C 18 0.00 MARSEILLE, FRANCE
181 2398 PANEL FREDERIC 02:40:50:000 D 52 0.00 SAINT JOSEPH, FRANCE
182 2704 CHAPPA BRUNO 02:40:50:000 C 19 0.00 SALINDRES, FRANCE
183 2284 LLEWELLING GUY 02:40:52:700 D 53 0.00 MANDELIEU, FRANCE
184 2468 MOREL FRANCOIS 02:40:53:800 E 56 0.00 VILLENEUVE LOUBET, FRANCE
185 2042 HURSTEL VINCENT 02:40:54:000 E 57 0.00 LE BOURGET DU LAC, FRANCE
186 2250 GRECO MICHEL 02:40:58:000 E 58 0.00 TOULON, FRANCE
187 2305 BAZILLE FREDERIC 02:41:08:000 E 59 0.00 LE BEAUSSET, FRANCE
188 2249 NOLLET PATRICK 02:41:09:000 F 27 0.00 BANDOL, FRANCE
189 2271 JACQUEMET CHRISTOPHE 02:41:20:000 D 54 0.00 LA ROQUETTE, FRANCE
190 2728 LAJUS MATHIEU 02:41:26:000 C 20 0.00 LES ORRES, FRANCE
191 2540 LE CLECH ANTHONY 02:41:28:000 CF 16 0.00 HYERES, FRANCE
192 2017 CATTEAUX CHRISTOPHE 02:41:39:000 C 21 0.00 CARNOUX EN PROVENCE, FRANCE
193 2220 BARDY LAURENT 02:42:03:000 D 55 0.00 MONTMAUR, FRANCE
194 35 ALLANOS VERONIQUE 02:44:00:000 AB 2 0.00 CHAMBERY, FRANCE
195 234 BONNARDEL PIERRE 02:44:00:000 F 28 0.00 GASSIN, France
196 2203 BLANC ALAIN 02:44:00:000 E 60 0.00 HYERES, FRANCE
197 2251 MEYER FABIEN 02:44:00:000 C 22 0.00 SALON DE PROVENCE, FRANCE
198 2037 BACHER MICHEL 02:44:00:100 G 11 0.00 ST BLAISE LA ROCHE, FRANCE
199 2018 SIFFRE JEAN MARIE 02:44:01:000 D 56 0.00 SIGEAN, FRANCE
201 711 SULLIVAN TERRY 02:44:02:000 G 12 0.00 TODMORDEN, Royaume-Uni
202 2146 PLUMEY CLAUDE 02:44:02:000 G 13 0.00 SEYSSEL, FRANCE
203 2322 FROMENT PAUL 02:44:02:100 F 29 0.00 LA CRAU, FRANCE
204 706 FORRAT JACQUES 02:44:02:200 F 30 0.00 PREVESSIN, FRANCE
205 2211 ALLEYRAT OLIVIER 02:44:03:000 D 57 0.00 HYERES, FRANCE
206 2389 PAILLIOTTIN HUGO 02:44:03:000 CF 17 0.00 CARQUEIRANNE, FRANCE
207 2006 POUGET LAURENT 02:44:03:900 D 58 0.00 JACOU, FRANCE
208 2414 OGIER NICOLAS 02:44:04:000 D 59 0.00 CARROS, FRANCE
209 2729 LEFEVRE DAMIEN 02:44:04:200 C 23 0.00 TOULON, FRANCE
211 2067 MARTINI ROGER 02:44:04:800 F 31 0.00 ST PAUL, FRANCE
212 2162 JOLIT MAX 02:44:05:600 E 62 0.00 HYERES, FRANCE
213 233 MICHALON ALAIN 02:44:06:000 E 63 0.00 COGOLIN, FRANCE
214 2738 ROSS AXEL 02:44:07:000 CF 18 0.00 LE CANNET, FRANCE
215 2092 SOUCHET PASCAL 02:44:08:000 E 64 0.00 NICE, FRANCE
216 2025 CURT NICOLAS 02:44:09:000 C 24 0.00 ANNECY LE VIEUX, FRANCE
217 25 DIEUDONNE NICOLAS 02:44:11:100 C 25 0.00 DRAGUIGNAN, FRANCE
218 1046 PHILIBERT JULIEN 02:44:21:000 C 26 0.00 DRAGUIGNAN, FRANCE
219 2563 TELLIER DAVY 02:44:39:000 D 60 0.00 GONFARON, FRANCE
220 2720 SMORTO PATRICE 02:45:48:000 E 65 0.00 LA VALETTE, FRANCE
221 2028 AUBERT CHRISTIAN 02:47:33:000 E 66 0.00 FONTVIEILLE, FRANCE
222 2321 LEGEAY OLIVIER 02:47:34:600 D 61 0.00 HYERES, FRANCE
223 307 CHAUVEAU JEAN LOUIS 02:47:35:000 F 32 0.00 CARCES, FRANCE
224 1022 TAMAGNE GILLES 02:47:35:000 E 67 0.00 GONFARON, FRANCE
225 2027 TROUSY NORBERT 02:47:36:000 F 33 0.00 ARLES, FRANCE
226 2313 SCLAVOUNOS PIERRE 02:47:36:000 E 68 0.00 ALLAUCH, FRANCE
227 2065 POULALIER JEAN 02:47:37:000 G 14 0.00 ST ALEXANDRE, FRANCE
228 2216 COTE DENIS 02:47:37:000 E 69 0.00 HYERES, FRANCE
229 2366 CHEVALIER DOMINIQUE 02:47:37:000 E 70 0.00 OLLIOULES, FRANCE
230 2111 PERIE MICHEL 02:47:38:000 E 71 0.00 RODEZ, FRANCE
231 2001 PETORIN THIERRY 02:47:39:000 E 72 0.00 VALBONNE, FRANCE
232 2326 BUSSONE ALBERT 02:47:40:000 E 73 0.00 HYERES, FRANCE
233 2525 FAEDDA LUDOVIC 02:47:41:000 CF 19 0.00 LA LONDE, FRANCE
234 2047 CHESTA YVES 02:47:42:000 G 15 0.00 LE ROURET, FRANCE
235 2288 MOTTURA JEAN MARC 02:47:43:000 D 62 0.00 HYERES, FRANCE
236 2225 VIALLE GERARD 02:47:46:000 E 74 0.00 MONTPELLIER CEDEX 3, FRANCE
237 2156 BANHARES ERIC 02:47:50:600 D 63 0.00 MONTPELLIER CEDEX 3, FRANCE
238 2295 REGUILLET DOMINIQUE 02:47:50:800 E 75 0.00 LA SEYNE S/MER, FRANCE
239 2148 PAUSE EMMANUEL 02:47:52:000 D 64 0.00 TOULON, FRANCE
240 2063 SAN NICOLAS LIONEL 02:47:52:200 D 65 0.00 FREJUS, FRANCE
241 2245 DOUVIER ERIC 02:47:53:000 D 66 0.00 LA CRAU, FRANCE
242 2344 PANEL MAURICE 02:47:55:000 F 34 0.00 SAINT JOSEPH, FRANCE
243 2235 SABETTI PATRICK 02:48:55:000 F 35 0.00 LE PRADET, FRANCE
244 2353 ANDREU RENE 02:48:56:000 F 36 0.00 MARSEILLE, FRANCE
245 2380 270322 BRUYNEEL 02:48:56:000 F 37 0.00 ,
246 2435 GILLES CYRIL 02:48:56:200 C 27 0.00 VALENCE, FRANCE
247 2561 BONZON OLIVIER 02:48:56:300 D 67 0.00 CARNOULES, FRANCE
248 2217 PRINCE BERNARD 02:48:58:000 G 16 0.00 ECHALLENS, SUISSE
249 2183 LEFRANCOIS JOFFREY 02:49:13:000 D 68 0.00 BANDOL, FRANCE
250 2419 RAHAL YANN 02:49:14:700 E 76 0.00 HYERES, FRANCE
251 2214 ICARDI DAVID 02:49:22:000 D 69 0.00 HYERES, FRANCE
252 2293 COEFFIC YVON 02:49:22:000 F 38 0.00 BRIGNOLES, FRANCE
253 2121 GAMERRE J.LOUIS 02:49:23:000 F 39 0.00 BELGENTIER, FRANCE
254 2040 BOURREE PASCAL 02:49:23:200 E 77 0.00 TOULON, FRANCE
255 2062 COULMEAU ALAIN 02:49:24:000 G 17 0.00 LA SEYNE CEDEX, FRANCE
257 971 GARDELLA JEAN PIERRE 02:49:27:000 E 78 0.00 MARSEILLE, FRANCE
258 2737 PELLEGRIN ARNAUD 02:49:27:000 D 70 0.00 DIGNE, FRANCE
259 2128 TALIANA THIERRY 02:49:27:900 E 79 0.00 FUVEAU, FRANCE
260 2260 SAUTEUR DAVID 02:49:28:000 D 71 0.00 MARSEILLE, FRANCE
261 2411 VOZMEDIANO MANUEL 02:49:30:700 E 80 0.00 CAMPS LA SOURCE, FRANCE
262 2097 DERUSCHI FREDERIC 02:49:31:000 E 81 0.00 TEYRAN, FRANCE
263 2291 GARCIA MARIE JOSE 02:49:33:000 AB 3 0.00 GREASQUE, FRANCE
264 2436 GILLES PATRICK 02:49:33:700 E 82 0.00 VALENCE, FRANCE
265 2452 SCHMITT PHILIPPE 02:49:34:600 D 72 0.00 MARSEILLE, FRANCE
266 2352 GRISANZIO KATIA 02:49:36:100 AB 4 0.00 MARSEILLE, FRANCE
267 2044 GUERIN ROBERT 02:49:39:000 G 18 0.00 RODHILAN, FRANCE
268 2371 YACONO FLORENT 02:49:41:000 C 28 0.00 TOULON, FRANCE
269 2236 MESSALTI NATHALIE 02:49:42:000 AB 5 0.00 MONTBENOIT, FRANCE
270 1102 MARCHAND ALAIN 02:49:45:000 G 19 0.00 GARDANNE, FRANCE
271 2215 ROIG ALAIN 02:49:45:400 F 41 0.00 CARQUEIRANNE, FRANCE
272 228 CANONE MICHEL 02:49:45:600 E 83 0.00 HYERES, FRANCE
273 1036 BEREZANSKI STEEVE 02:49:47:000 C 29 0.00 BRUNSTATT, FRANCE
274 2008 VALLE PATRICK 02:49:47:000 E 84 0.00 HYERES, FRANCE
275 2722 CROCQ STEPHANE 02:49:49:000 D 73 0.00 TOULON, FRANCE
276 2705 BRULAT MARC 02:49:50:000 D 74 0.00 ROUSSON, FRANCE
277 2178 ROUSSEL OLIVIER 02:49:52:600 D 75 0.00 SOLLIES PONT, FRANCE
278 2252 ROSE NOEL 02:50:59:000 F 42 0.00 BRIGNOLES, FRANCE
279 2418 VIELLEFOND JULIEN 02:50:59:200 CF 20 0.00 NAUJEAN, FRANCE
280 2723 ARDISSON PASCAL 02:50:59:400 C 30 0.00 TOULON, FRANCE
281 2264 CHABOT CLAUDE 02:51:01:000 G 20 0.00 MARSEILLE, FRANCE
282 2243 SOLA JACQUES 02:51:03:000 E 85 0.00 ALLAUCH, FRANCE
283 2127 METIFIOT WINDSON NICOLAS 02:51:05:400 C 31 0.00 MARSEILLE, FRANCE
284 2475 ROSS DOMINIQUE 02:51:07:000 E 86 0.00 LE CANNET, FRANCE
285 2476 ROSS CAROLINE 02:51:07:000 AB 6 0.00 LE CANNET, FRANCE
286 2021 LACORNE CHRISTIAN 02:51:17:000 F 43 0.00 HYERES, FRANCE
287 2113 PALIS FRANCOIS 02:51:17:000 I 1 0.00 SEBAZAC, FRANCE
288 2375 MASSEL CHRISTOPHE 02:51:31:000 D 76 0.00 LA FARLEDE, FRANCE
289 2239 BONNABEL PIERRE 02:52:42:000 E 87 0.00 LA SEYNE S/MER, FRANCE
290 2145 AMICO WALTER 02:52:52:000 D 77 0.00 CUERS, FRANCE
291 2521 FAYET CEDRIC 02:52:54:700 C 32 0.00 TOULON, FRANCE
292 2190 ETCHEVERS JEAN CHARLES 02:52:55:200 G 21 0.00 ST MEDARD EN JALLES, FRANCE
293 2061 PORTA CLAUDE 02:52:56:000 G 22 0.00 CARQUEIRANNE, FRANCE
294 2348 DOQUET MICHEL 02:52:57:600 G 23 0.00 VERTUS, FRANCE
295 2106 FAURE PASCAL 02:52:58:000 D 78 0.00 ST BONNET EN CHAMPSAUR, FRANCE
296 2023 FOURNIAL DIDIER 02:52:59:000 E 88 0.00 CORREZE, FRANCE
297 2232 PAPAVERO OLIVIER 02:52:59:000 D 79 0.00 SOLLIES TOUCAS, FRANCE
298 2329 DACLIN ARNAUD 02:53:00:000 D 80 0.00 TOULON, FRANCE
299 2078 ESCORIHUELA ALEXIS 02:53:01:000 E 89 0.00 HYERES, FRANCE
300 2142 FEDE PAUL 02:53:01:000 F 44 0.00 BEAUSOLEIL, FRANCE
301 2323 LAMBERT MARC 02:53:01:000 F 45 0.00 LA CRAU, FRANCE
302 835 BAUDOIN FLORIAN 02:53:01:100 E 90 0.00 CARNOULES, FRANCE
303 2172 MEZIN JEAN 02:53:03:000 G 24 0.00 PEYMEINADE, FRANCE
304 2709 DEFERRARI PHILIPPE 02:53:03:000 D 81 0.00 BANDOL, FRANCE
305 2702 PEYRON ROGER 02:53:06:700 F 46 0.00 CUGES LES PINS, FRANCE
306 2703 DRIESSENS GERARD 02:53:06:700 F 47 0.00 PUGET DURANCE, FRANCE
307 2105 SEGUIN STEPHANE 02:53:07:000 D 82 0.00 benevent, FRANCE
308 2159 DUMAS STEPHANE 02:53:07:000 D 83 0.00 LA CRAU, FRANCE
309 2165 ELLENA JEAN 02:53:08:000 E 91 0.00 HYERES, FRANCE
310 2355 YACONO ALAIN 02:53:09:000 F 48 0.00 TOULON, FRANCE
311 2196 LOUP EMMANUEL 02:53:10:100 D 84 0.00 LA LONDE LES MAURES, FRANCE
312 2208 OLSTHOORN KAREL 02:53:10:100 F 49 0.00 HYERES, FRANCE
313 2466 GRANGIER ROBERT 02:53:11:000 F 50 0.00 MARSEILLE, FRANCE
314 2328 TOCHE JEAN MARIE 02:53:13:000 D 85 0.00 HYERES, FRANCE
315 2708 ACCOSSANO PATRICE 02:53:47:000 D 86 0.00 TOULON, FRANCE
316 2423 MICHEL ROMAIN 02:54:19:000 CF 21 0.00 PUGET THENIERS, FRANCE
317 2303 BLANC NICOLAS 02:55:43:000 C 33 0.00 HYERES, FRANCE
318 2337 BARTOLINI MICHEL 02:55:44:000 F 51 0.00 LA VALETTE DU VAR, FRANCE
319 2104 HAMARD ERNEST 02:55:44:400 G 25 0.00 LUNEL, FRANCE
320 2420 BARTOLOMEI GUY 02:55:44:700 C 34 0.00 LA VALETTE, FRANCE
321 2257 CLET DAVID BERNARD 02:55:52:000 G 26 0.00 PLAN DE CUQUES, FRANCE
322 2082 PERUCCA DANIEL 02:55:53:600 F 52 0.00 CAGNES SUR MER, FRANCE
323 2272 MARCELLI JEAN CHARLES 02:55:55:000 E 92 0.00 LA SEYNE S/MER, FRANCE
324 2275 CEBRIAN OLIVIER 02:55:56:500 E 93 0.00 LA SEYNE S/MER, FRANCE
325 2059 GAGNARD FRANCOIS 02:55:57:000 G 27 0.00 ST LAURENT DU VAR, FRANCE
326 2152 PALMERI MARC 02:55:58:000 D 87 0.00 OLLIOULES, FRANCE
327 2237 NOLL ROLAND 02:55:58:000 F 53 0.00 LE BAR SUR LOUP, FRANCE
328 2514 VALON JEAN YVES 02:55:58:000 F 54 0.00 GAP, FRANCE
329 253 BONNAURE CHRISTOPHE 02:55:59:000 D 88 0.00 HYERES, FRANCE
330 2041 CHAUVET MAURICE 02:55:59:500 G 28 0.00 PERTUIS, FRANCE
331 2228 CHOUFFOT DENIS 02:56:00:000 F 55 0.00 LE PRADEL, FRANCE
332 2266 ROBIQUET J.JACQUES 02:56:00:000 F 56 0.00 VILLENEUVE LES AVIGNON, FRANCE
333 2718 RODET LOEW MARCOU 02:56:00:000 CF 22 0.00 AUBAGNE, FRANCE
334 2363 QUILES GEORGES 02:56:01:000 G 29 0.00 TAVERNES, FRANCE
335 2200 PATROSSO PAUL 02:56:02:000 E 94 0.00 MARSEILLE, FRANCE
336 2233 MOULARD SERGE 02:56:02:500 F 57 0.00 BELLEGARDE, FRANCE
337 2057 MATUSZCZAK THEOPHILE 02:56:03:000 G 30 0.00 BORMES LES MIMOSAS, FRANCE
338 2317 CUCCIA ROBERT 02:56:04:000 F 58 0.00 TOULON, FRANCE
339 2151 PALMERI VITO 02:56:05:000 G 31 0.00 SIX FOURS, FRANCE
340 2365 COMBE BRUNO 02:56:08:000 E 95 0.00 ANNONAY, FRANCE
341 2553 PIQUE JOHAN 02:56:08:000 CF 23 0.00 MOUGINS, FRANCE
342 2210 HAMPE ERIC 02:56:09:000 E 96 0.00 LA CRAU, FRANCE
343 2373 ALIX DENIS 02:56:09:000 D 89 0.00 DRAGUIGNAN, FRANCE
344 2199 ZANNETTACCI BRUNO 02:56:10:800 E 97 0.00 CADOLIVE, FRANCE
345 2341 BALANGER GUY 02:56:11:000 F 59 0.00 LE BEAUSSET, FRANCE
346 2280 PIQUE DANIEL 02:56:12:000 E 98 0.00 MOUGINS, FRANCE
347 2325 BRUNO RENE 02:56:14:000 E 99 0.00 LA LONDE, FRANCE
348 2735 WARME HADRIEN 02:56:50:000 CF 24 0.00 TOULON, FRANCE
349 2267 DUFOUR VINCENT 02:57:04:000 F 60 0.00 AIX EN PROVENCE, FRANCE
350 51 MOUYSSET FREDERIC 02:57:06:000 D 90 0.00 TOULON, FRANCE
351 2134 GALTIER GERRY 02:57:06:700 D 91 0.00 NICE, FRANCE
352 2155 LEBRETON JEAN 02:57:07:000 F 61 0.00 LE BEAUSSET, FRANCE
353 2430 LAVIGNE JEAN 02:57:07:000 E 100 0.00 HYERES, FRANCE
354 2175 CHENIN LAURENT 02:57:08:000 D 92 0.00 SALON DE PROVENCE, FRANCE
355 2724 DECIANE PHILIPPE 02:57:18:000 E 101 0.00 LA GARDE, FRANCE
356 2350 GOUIN BERNARD 02:57:26:000 F 62 0.00 VOREPPE, FRANCE
357 2378 PIZZIO ROBERT 02:57:39:000 E 102 0.00 ST DALMAS DE TENDE, FRANCE
358 2189 MARIE STEPHAN 02:57:40:000 D 93 0.00 FREJUS, FRANCE
359 2163 ZERBONIA ROBERT 02:57:41:000 F 63 0.00 HYERES, FRANCE
360 2181 JEAN BAPTISTE JEAN MARC 02:57:46:000 F 64 0.00 MONTFORT/ARGENS, FRANCE
361 2570 LEANNI DANIEL 02:59:57:000 G 32 0.00 BRIGNOLES, FRANCE
362 2556 SCOTTO ALAIN 03:00:01:000 D 94 0.00 LA GARDE, FRANCE
363 2523 MULLER GILBERT 03:00:02:100 G 33 0.00 VEYNES, FRANCE
364 2530 NICOLAS RAYMOND 03:00:03:600 F 65 0.00 LE VAL, FRANCE
365 2565 NICOLAS GEORGES 03:00:03:600 F 66 0.00 LE VAL, FRANCE
366 308 CHAUVEAU TONY 03:00:04:000 C 35 0.00 NANS LES PINS, FRANCE
367 2562 SEBBAHA MOHAMED 03:00:07:000 D 95 0.00 TOULON, FRANCE
368 2262 GROMOVOI ALAIN 03:00:10:000 G 34 0.00 VENCE, FRANCE
369 2302 GUEGAN LAURENT 03:00:11:800 D 96 0.00 HYERES, FRANCE
370 2382 PITUELLO GILLES 03:00:12:000 D 97 0.00 LA GARDE, FRANCE
371 2224 NOGUES PHILIPPE 03:00:13:300 E 103 0.00 CARQUEIRANNE, FRANCE
372 2576 FORET PIERRE 03:00:14:400 F 67 0.00 BORMES LES MIMOSAS, FRANCE
373 2254 INDIANI PIERRE 03:00:15:200 D 98 0.00 DIGNE LES BAINS, FRANCE
374 2545 GATE ERIC 03:00:17:000 D 99 0.00 L ISLE D ABEAU, FRANCE
375 2404 THOMAS GUY 03:00:18:000 F 68 0.00 BOBECOURT, FRANCE
376 2038 CARSENA JEAN LOUIS 03:00:19:000 E 104 0.00 MENTON, FRANCE
377 2246 LERAT SOPHIE 03:00:19:000 AB 7 0.00 LES ADRETS, FRANCE
378 2557 ORSINI JEAN FRANCOIS 03:00:21:900 D 100 0.00 TOULON, FRANCE
379 2238 VALMALETTE KARINE 03:00:22:000 AB 8 0.00 CARQUEIRANNE, FRANCE
380 2388 FERRERI THEOTIME 03:00:29:000 CF 25 0.00 TOULON, FRANCE
381 2427 PAUL JEAN-FRANCOIS 03:00:40:000 G 35 0.00 GANNAT, FRANCE
382 236 LAPAGNE CHRISTOPHE 03:01:51:000 D 101 0.00 MEGEVE, FRANCE
383 2192 PERREUR FRANCIS 03:01:51:800 G 36 0.00 VAULX EN VELIN, FRANCE
384 41 MARIE JEAN PHILIPPE 03:01:52:000 D 102 0.00 , FRANCE
385 2007 BOSOM YVES 03:01:52:000 F 69 0.00 PRADES, FRANCE
386 44 GIORDANETTO LORIS 03:01:52:200 CF 26 0.00 , FRANCE
387 2020 CHASSON GERMAIN 03:01:53:000 G 37 0.00 LIVRON, FRANCE
388 2234 JACQUET DOMINIQUE 03:01:59:000 E 105 0.00 VILLERS BOCAGE, FRANCE
389 2362 BENITA ROMAIN 03:01:59:700 C 36 0.00 LORGUES, FRANCE
390 42 MARCHOT GUY 03:02:01:000 F 70 0.00 AIX EN PROVENCE, FRANCE
391 2410 VOZMEGIANVO JONATHAN 03:02:03:400 CF 27 0.00 CAMPS LA SOURCE, FRANCE
392 235 GIRE GEORGES 03:02:04:000 F 71 0.00 , FRANCE
393 2194 MARINI VINCENT 03:02:14:000 E 106 0.00 SIX FOURS LES PLAGES, FRANCE
394 2112 PERREUR PHILIPPE 03:02:36:000 D 103 0.00 HYERES, FRANCE
395 2327 PAPPALARDO YVES 03:03:42:000 E 107 0.00 HYERES, FRANCE
396 2279 BENSA RENE 03:05:27:000 F 72 0.00 PEGOMAS, FRANCE
397 2013 DECIZE LIONEL 03:06:37:000 D 104 0.00 TOULON, FRANCE
398 2212 ICARDI JEROME 03:07:45:000 D 105 0.00 HYERES, FRANCE
399 2307 MERIC SEBASTIEN 03:07:46:000 C 37 0.00 PIERREFEV DU VAR, FRANCE
400 2547 AUBERT SAULE REMI 03:07:47:000 CF 28 0.00 NICE, FRANCE
401 2226 CASTILLON MANUEL 03:07:48:000 F 73 0.00 MONTPELLIER, FRANCE
402 2345 DANGEL STEPHANE 03:07:48:800 D 106 0.00 LA CRAU, FRANCE
403 2031 CHABRAND ROLAND 03:07:49:000 G 38 0.00 LA CIOTAT, FRANCE
404 2070 ESCAFIT FRANCK 03:07:49:000 E 108 0.00 MARSEILLE, FRANCE
405 2387 POLETTO JEAN PIERRE 03:07:53:000 F 74 0.00 HYERES, FRANCE
406 28 JULY RICHARD 03:07:55:000 D 107 0.00 , FRANCE
407 2297 VACCARO PASCAL 03:07:55:200 D 108 0.00 LA CRAU, FRANCE
408 2051 DHO ROGER 03:07:57:200 G 39 0.00 POURRIERES, FRANCE
409 2029 TEISSIER FREDERIC 03:07:58:000 E 109 0.00 ISTRES, FRANCE
410 2310 BERTILLON JACQUES 03:08:04:000 E 110 0.00 TOULON, FRANCE
411 2052 HERPIN RENE 03:08:06:100 G 40 0.00 LA LONDE LES MAURES, FRANCE
412 2575 BROUZE YVES 03:08:06:100 D 109 0.00 BELGENTIER, FRANCE
413 2444 DEKEUWER PIERRE 03:08:15:000 D 110 0.00 HYERES, FRANCE
414 2116 RACO FRANCIS 03:08:37:000 D 111 0.00 LA CRAU, FRANCE
415 2286 DEBELLY GERARD 03:08:57:000 F 75 0.00 ST LAURENT DU VAR, FRANCE
416 2465 SILLEGUE PATRICK 03:08:58:400 F 76 0.00 GASSIN, FRANCE
417 2384 BOULET RAYMOND 03:08:58:900 G 41 0.00 VERNEUIL SUR AVRE, FRANCE
418 2278 MAUBLANC JEAN PAUL 03:09:00:000 F 77 0.00 ROUSSILLON, FRANCE
419 751 NEGRI PATRICE 03:09:04:000 D 112 0.00 TOULON, FRANCE
420 2180 CUTAIA ROBERT 03:09:04:600 F 78 0.00 TOULON, FRANCE
421 2075 HUBSCHWERLIN DANIEL 03:09:05:000 G 42 0.00 PEYMEINADE, FRANCE
422 2376 FATON BERNARD 03:09:05:000 G 43 0.00 DOMPIERRE SUR MONT, FRANCE
423 2531 VINAI YVES 03:09:07:000 F 79 0.00 LE VAL, FRANCE
424 2039 PECRESSE YVES 03:09:07:200 G 44 0.00 CAGNES SUR MER, FRANCE
425 2527 MONDANI MICHEL 03:09:08:000 E 111 0.00 BRIGNOLES, FRANCE
426 2532 GONTARD PATRICK 03:09:08:000 F 80 0.00 BRIGNOLES, FRANCE
427 2277 MAUBLANC MARIE ODILE 03:09:11:000 B 1 0.00 ROUSSILLON, FRANCE
428 2054 CID LAURENT 03:09:13:000 F 81 0.00 TOULON, FRANCE
429 2118 TRIMOREAU RENE 03:09:15:000 G 45 0.00 VILLENEUVE LOUBET, FRANCE
430 2314 BONNET GUY 03:10:32:000 E 112 0.00 LA LONDE, FRANCE
431 2231 MASSA CHRISTOPHE 03:10:48:000 D 113 0.00 ST BONNET EN CHAMPSAUR, FRANCE
432 2085 LAVADOUX LAETITIA 03:10:49:300 A 2 0.00 LA LONDE LES MAURES, FRANCE
433 2425 MUSSO STEPHANE 03:11:28:000 E 113 0.00 SALON DE PROVENCE, FRANCE
434 2289 CHAPUGIER FREDERIC 03:12:24:000 D 114 0.00 HYERES, FRANCE
435 2171 MARTIN SIMON 03:12:26:000 G 46 0.00 MOUGINS, FRANCE
436 2343 PANEL GEORGES 03:12:37:000 F 82 0.00 SAINT JOSEPH, FRANCE
437 2736 VIDARD BERNARD 03:13:00:000 F 83 0.00 TOULON, FRANCE
438 9 BOUSCHON PATRICK 03:14:10:000 D 115 0.00 MONTELIMAR, FRANCE
439 2174 MANTELIN JEAN PIERRE 03:14:11:000 F 84 0.00 DAVEZIEUX, FRANCE
440 2010 SOULIER FREDERIC 03:14:11:400 D 116 0.00 CARPIAGNE ARMEES, FRANCE
441 2115 LEIZE JEAN MARIE 03:14:12:200 F 85 0.00 SAINT GENIS LAVAL, FRANCE
442 2241 CREPIN NATHALIE 03:14:13:000 A 3 0.00 SAINT RAPHAEL, FRANCE
443 2706 DURY EMMANUEL 03:14:13:000 F 86 0.00 ST REMY, FRANCE
444 2470 CHAPRIER OLIVIER 03:14:13:500 C 38 0.00 ST JULIEN MOLIN MOLETTE, FRANCE
445 2546 ROCHE GILLES 03:14:13:500 D 117 0.00 VILLENEUVE, FRANCE
446 31 AIMAR THIERRY 03:14:17:000 E 114 0.00 HYERES, FRANCE
447 2445 SANCHEZ DAVID 03:14:19:600 D 118 0.00 TARADEAU, FRANCE
448 2391 TRZCIALKOWSKI JEAN PIERRE 03:14:20:100 E 115 0.00 SUIPPESý, FRANCE
449 2336 BARTOLINI PASCALE 03:14:21:000 AB 9 0.00 LA VALETTE DU VAR, FRANCE
450 2461 DJEFAL RAMDANE 03:14:21:000 F 87 0.00 BESSE SUR ISSOLE, FRANCE
451 2726 GIUSTI ALFRED 03:14:21:000 G 47 0.00 SPERACEDES, FRANCE
452 2446 CADIEU RAYMOND 03:14:21:700 E 116 0.00 LYON, FRANCE
453 2096 BERTHIER REMY 03:14:22:600 F 88 0.00 BORMES LES MIMOSAS, FRANCE
454 2331 SCHEURER PIERRE 03:14:23:000 G 48 0.00 COLLONGES AU MONT D'OR, FRANCE
455 2033 CATTEAUX JEAN-FRANCOIS 03:14:24:000 F 89 0.00 AUBAGNE, France
456 2409 BERLIOZ MICHEL 03:14:24:000 G 49 0.00 HYERES, FRANCE
457 2510 MIENS MICHEL 03:14:25:000 F 90 0.00 VOLX, FRANCE
458 2093 ROUISON ROBERT 03:14:25:900 G 50 0.00 SAINT RAPHAEL, FRANCE
459 2406 LE PAIN ROLLAND 03:14:26:000 G 51 0.00 RIEC SUR BELON, FRANCE
460 2564 BELTRAMO JEAN MARC 03:14:26:300 D 119 0.00 VILLENEUVE, FRANCE
461 2508 CANALI DENIS 03:14:27:000 F 91 0.00 ARLES, FRANCE
462 2422 SAVORET BENOIT 03:14:28:000 D 120 0.00 LONDRES, Royaume-Uni
463 2733 DURAND FRANCIS 03:14:28:600 F 92 0.00 CUERS, FRANCE
464 2083 MIGNOT ROGER 03:14:29:100 F 93 0.00 PORT SUR SAONE, FRANCE
465 2428 SPENNATO PATRICK 03:14:29:500 E 117 0.00 CASTAGNIERS, FRANCE
466 2429 CONSTANT VERONIQUE 03:14:30:000 A 4 0.00 CARROS, FRANCE
467 21 BONNAFOUS CHRISTOPHE 03:14:31:000 D 121 0.00 , FRANCE
468 2019 PIVERT DANIEL 03:14:31:000 G 52 0.00 HYERES, FRANCE
469 2100 HAMON DANIEL 03:14:32:000 F 94 0.00 LA CRAU, FRANCE
470 2416 AITTAHAR MOHAMED 03:14:33:000 E 118 0.00 CARROS, FRANCE
471 2120 ZEUGIN J.LOUIS 03:14:33:600 G 53 0.00 HYERES, FRANCE
472 2218 CHAZEAU ERIC 03:14:34:200 F 95 0.00 GRASSE, FRANCE
473 2453 ORLANDI PIERRE 03:14:36:000 G 54 0.00 CHATEAUNEUF LES MARTIGUES, FRANCE
474 609 TUEUR PASCAL 03:14:37:900 E 119 0.00 PIERRECOURT, FRANCE
475 2358 GERGAUD JEAN PIERRE 03:14:38:000 F 96 0.00 SARAN, FRANCE
476 2715 DURUISSEAU CLAUDE 03:14:39:300 F 97 0.00 CHATEAUNEUF LES MARTIGUES, FRANCE
477 2583 PLANES FABRICE 03:14:39:700 C 39 0.00 LE REVEST LES EAUX, FRANCE
478 2513 ZACHARIE GILLES 03:14:39:800 D 122 0.00 FOS SUR MER, FRANCE
479 2036 OUDINOT CLAUDE 03:14:40:000 F 98 0.00 MONACO, 24
480 2396 CRETIN GEORGES 03:14:42:000 E 120 0.00 FAYENCE, FRANCE
481 2193 ROBERT DIDIER 03:14:43:300 E 121 0.00 CARNOULES, FRANCE
482 2512 LUNOT FABRICE 03:14:43:300 D 123 0.00 FOS SUR MER, FRANCE
483 2367 SCHIRMANN ALBERT 03:14:44:000 F 99 0.00 LA LONDE LES MAURES, FRANCE
484 2290 VIGIER JEAN CLAUDE 03:14:44:400 G 55 0.00 LA GAUDE, FRANCE
485 2395 GONZALES JULIEN 03:14:44:400 C 40 0.00 LE REVEST LES EAUX, FRANCE
486 2185 BARTOLOMEO MICHAEL 03:14:46:400 C 41 0.00 MARSEILLE, FRANCE
487 2394 GONZALES GUY 03:14:47:000 G 56 0.00 LE REVEST LES EAUX, FRANCE
488 2287 PELE MARCEL 03:14:56:000 F 100 0.00 BAILLARGUES, FRANCE
489 2312 PAPPALARDO PATRICK 03:14:56:000 E 122 0.00 PEYPIN, FRANCE
490 227 ROGRIGUEZ JOACHIM 03:14:56:100 E 123 0.00 HYERES, FRANCE
491 2412 TORSOLI FRANCIS 03:14:58:000 G 57 0.00 LA TURBIE, FRANCE
492 2566 GARIN NORBERT 03:14:58:200 G 58 0.00 LA LONDE LES MAURES, FRANCE
493 2359 FABREGUE FRANCIS 03:15:01:000 F 101 0.00 COTIGNAC, FRANCE
494 46 VIRENQUE LIONEL 03:15:03:000 D 124 0.00 HYERES, FRANCE
495 2515 VERDU MICHAEL 03:15:04:200 C 42 0.00 LA SEYNE S/MER, FRANCE
496 2712 VANDEWALLE MICHEL 03:15:06:000 F 102 0.00 SAINT SATURNIN LES APT, FRANCE
497 2173 ARPAIA RODOLPHE 03:15:07:000 F 103 0.00 MARSEILLE, FRANCE
498 2571 CUSIN JEAN LOUIS 03:15:10:300 G 59 0.00 ODENAS, FRANCE
499 2114 ROULLET FREDERIC 03:15:33:000 D 125 0.00 TOULON, FRANCE
500 2717 D HARCOUR JEAN LUC 03:16:22:000 D 126 0.00 MOUGINS, FRANCE
501 2727 LAOT JEAN MARIE 03:17:58:000 F 104 0.00 MONTELIMAR, FRANCE
502 2439 JOUBERJEAN ELYANE 03:18:37:000 B 2 0.00 BRIANCON, FRANCE
503 2716 BONZON LAURENT 03:18:37:000 D 127 0.00 TOULON, FRANCE
504 47 COQUILLAT JACQUES 03:18:38:100 D 128 0.00 HYERES, FRANCE
505 2721 DUPONT HENRI 03:18:38:900 G 60 0.00 QUESNOY SUR DEULE, FRANCE
506 2265 RUBINO JACKY 03:20:11:000 F 105 0.00 MANDELIEU, FRANCE
507 2456 NOUHEN JEAN CLAUDE 03:20:16:000 F 106 0.00 GARCOULT, FRANCE
508 2560 FASCIO LAURENT 03:20:17:800 C 43 0.00 TOULON, FRANCE
509 2274 DEBREYNE LUCIEN 03:20:43:000 G 61 0.00 LA LONDE LES MAURES, FRANCE
510 2713 CALVIN ROBERT 03:21:04:000 F 107 0.00 LE PONTET, FRANCE
511 2026 MOMBRU ROGER 03:21:14:000 E 124 0.00 NICE, FRANCE
512 2308 LOPEZ LAURENT 03:21:15:000 C 44 0.00 TOULON, FRANCE
513 2333 CUSMAN JEROME 03:21:16:000 C 45 0.00 TOULON, FRANCE
514 2318 BOUSQUET FRANCIS 03:21:24:000 F 108 0.00 LE PRADEL, FRANCE
516 2447 BOURRIOUX ERIC 03:21:26:000 E 126 0.00 BEAUVAIS, FRANCE
517 2247 BERNARDI JEAN MARIE 03:21:27:000 F 109 0.00 CUERS, FRANCE
518 2520 EYRAUD NADINE 03:21:27:000 B 3 0.00 MIRIBEL LANCHATRE, FRANCE
519 2079 ROSELLO VIRGINIE 03:21:28:000 AB 10 0.00 LA GARDE, FRANCE
520 2574 NUSS JEAN PIERRE 03:21:28:000 G 62 0.00 MUTZIG, FRANCE
521 2045 BRILLADA PIERRE 03:21:29:000 F 110 0.00 CARROS, FRANCE
522 2187 SAUVELET CLAUDE 03:21:29:000 G 63 0.00 JUNAS, FRANCE
523 2089 LE POGAM JEAN MARIE 03:21:38:500 E 127 0.00 LE LAVANDOU, FRANCE
524 2316 MANSE YVES 03:22:13:000 F 111 0.00 TOULON, FRANCE
525 2361 FABREGUE CHRISTOPHE 03:22:40:000 D 129 0.00 COTIGNAC, FRANCE
526 2099 GRARE DANIEL 03:22:40:200 F 112 0.00 LA LONDE LES MAURES, FRANCE
527 2227 BERNARD MICHEL 03:23:27:000 F 113 0.00 CHATEAUNEUF LES MARTIGUES, FRANCE
528 2090 BANDRES JEAN PIERRE 03:23:56:000 F 114 0.00 MARSEILLE, FRANCE
529 2131 PETITJEAN CHRISTOPHE 03:23:57:400 D 130 0.00 HYERES, FRANCE
530 2360 MELI JEAN PIERRE 03:23:58:000 E 128 0.00 COTIGNAC, FRANCE
531 2517 BANDRES JEAN MICHEL 03:23:58:300 CF 29 0.00 MARSEILLE, FRANCE
532 901 CERVERA GILBERT 03:24:23:000 E 129 0.00 ALLAUCH, FRANCE
533 2024 AUBERT PATRICK 03:25:30:000 E 130 0.00 AIX EN PROVENCE, FRANCE
534 2381 ROLLIN JEAN MARIE 03:25:44:000 G 64 0.00 ST JULIEN LES METZ, FRANCE
535 2102 CARLE STEPHANE 03:28:06:000 D 131 0.00 VARAGES, FRANCE
536 2263 DEVAUX GUY 03:28:28:000 G 65 0.00 MARSEILLE, FRANCE
537 2549 GEGGIOLI JEAN PHILIPPE 03:29:47:000 E 131 0.00 LA LONDE, FRANCE
538 2548 GEGGIOLI MARIO 03:29:48:200 CF 30 0.00 LA LONDE, FRANCE
539 2186 SIRI AURELIEN 03:30:43:000 C 46 0.00 MARSEILLE, FRANCE
540 27 CORNIER PHILIPPE 03:31:30:000 E 132 0.00 CEYZERIAT, FRANCE
541 2518 MOINE PIERRE 03:32:13:000 C 47 0.00 TOULON, FRANCE
542 2731 PIERACCINI FREDERIC 03:32:20:000 E 133 0.00 BANDOL, FRANCE
543 2478 GUERRAS ALAIN 03:32:42:000 D 132 0.00 LA GARDE, FRANCE
544 2567 PODEVIN PATRICK 03:34:19:000 F 115 0.00 TOULON, FRANCE
545 2582 GAGNARD ROGER 03:34:23:000 G 66 0.00 LE PRADET, FRANCE
546 2526 VILLECHAIZE PHILIPPE 03:34:33:000 F 116 0.00 TOULON, FRANCE
547 2529 CUTAIA CHRISTIAN 03:34:33:000 E 134 0.00 PIGNANS, FRANCE
548 737 LAUMONDAYS GILLES 03:34:35:700 E 135 0.00 GRASSE, FRANCE
549 2081 GUILLEMIN FRANCOIS 03:34:44:000 F 117 0.00 CHALONS EN CHAMPAGNE, FRANCE
550 2153 DAUER CHRISTOPHE 03:34:51:000 E 136 0.00 HOENHEIM, FRANCE
551 2123 SCHWOB GUY 03:34:52:000 E 137 0.00 LINGOLSHEIM, FRANCE
552 2258 PENET ALAIN 03:35:38:200 F 118 0.00 SALON DE PROVENCE, FRANCE
553 2060 DARRE MAXIME 03:36:49:000 G 67 0.00 HYERES, FRANCE
554 2122 MONTAILLER ANDRE 03:36:49:000 G 68 0.00 LA LONDE LES MAURES, FRANCE
555 2088 OUSSELLY SIMONE 03:37:20:000 B 4 0.00 ROQUEBRUNE SUR ARGENS, FRANCE
556 2205 LION VIRGINIE 03:38:16:000 A 5 0.00 HYERES, FRANCE
557 2298 FERRERO ISABELLE 03:38:18:000 A 6 0.00 ENSUES LA REDONNE, FRANCE
558 2415 AITTAHAR PIERRE 03:38:18:200 CF 31 0.00 CARROS, FRANCE
559 4 CLERICO EMMANUEL 03:38:19:000 D 133 0.00 VILLEPREUX, FRANCE
560 2505 POMARES HENRI PIERRE 03:38:19:500 E 138 0.00 ROGNAC, FRANCE
561 2509 CASTELLS OLIVIER 03:38:21:400 D 134 0.00 MAUGUIO, FRANCE
562 2580 TROTOBAS ANDRE 03:38:22:300 F 119 0.00 HYERES, FRANCE
563 909 TURNY JEAN PAUL 03:38:23:000 E 139 0.00 NICE, FRANCE
564 2087 REBUFFAT FREDERIC 03:38:24:000 C 48 0.00 HYERES, FRANCE
565 2584 MARZUOLA JEAN 03:38:25:400 G 69 0.00 NICE, FRANCE
566 2281 MICHEL PASCAL 03:39:18:000 D 135 0.00 CANNES, FRANCE
567 2386 GUILLAUME JEAN MARIE 03:40:00:000 G 70 0.00 FREJUS, FRANCE
568 2555 GUEGAN JEAN PIERRE 03:41:21:000 G 71 0.00 LA CRAU, FRANCE
569 2463 FABRE JOSEPH 03:43:36:000 F 120 0.00 DRAGUIGNAN, FRANCE
570 950 MOUNIER JACKY 03:44:19:000 F 121 0.00 INTRES, FRANCE
571 2550 MACCOTTA RENAUD 03:44:32:000 D 136 0.00 HYERES, FRANCE
572 2209 GIORDANI DANIEL 03:44:45:000 F 122 0.00 NICE, FRANCE
573 2577 ROUBEUF PATRICK 03:44:45:900 E 140 0.00 LA LONDE, FRANCE
574 2426 SCOTTO THERESE 03:44:48:000 B 5 0.00 HYERES, FRANCE
575 2700 DOVIC BERNARD 03:45:45:000 G 72 0.00 VIROFLAY, FRANCE
576 2450 ACHARD ELISABETH 03:46:30:000 AB 11 0.00 MEYLAN, FRANCE
577 2502 ANACHE FREDERIC 03:46:53:000 E 141 0.00 SOLLIES PONT, FRANCE
578 2349 DE REGIBUS PHILIP 03:47:22:000 E 142 0.00 BRIGNOLES, FRANCE
579 2471 KRAUSS BRANDELET DELPHINE 03:47:32:000 AB 12 0.00 ST MARTIN DE BELLEVILLE, FRANCE
580 2472 BRIANDELET RAYMOND 03:47:32:300 G 73 0.00 MONTLUEL, FRANCE
581 2714 CESPEDES DESIRE 03:47:39:000 E 143 0.00 LA SEYNE S/MER, FRANCE
582 2501 TRANIER YVES 03:47:58:000 G 74 0.00 SAVIGNY SUR ORGE, FRANCE
583 17 SANTANIELLO PATRICK 03:48:02:000 E 144 0.00 , FRANCE
584 34 ALBERTINI CHRISTOPHE 03:48:02:700 D 137 0.00 HYERES, FRANCE
585 2046 PRIARONE GILLES 03:48:25:000 E 145 0.00 ROQUEBRUNE SUR ARGENS, FRANCE
586 2056 MARIN MICHEL 03:48:28:000 E 146 0.00 ROQUEBRUNE SUR ARGENS, FRANCE
587 2058 LAMBERT JEAN 03:48:28:400 G 75 0.00 FREJUS, FRANCE
588 2022 HONNORAT ROBERT 03:48:29:000 F 123 0.00 ESPINASSES, FRANCE
589 2544 MIGNOT GERARD 03:48:34:000 F 124 0.00 BELLEGARDE POUSSIEU, FRANCE
590 2534 ISOLA JEAN MARC 03:48:45:000 G 76 0.00 TRESSES, FRANCE
591 2098 HELON SANDRA 03:50:37:000 A 7 0.00 AFFLIGEM, BELGIQUE
592 2132 DOMENICHINO JEAN 03:51:09:000 G 77 0.00 AUBAGNE, FRANCE
593 2055 FOURNIER ELIANE 03:52:23:000 B 6 0.00 VEYNES, FRANCE
594 2048 FOURNIER HENRI 03:52:25:000 G 78 0.00 VEYNES, FRANCE
595 2369 BARATTERO NICOLAS 03:52:34:000 C 49 0.00 HYERES, FRANCE
596 2126 RUYSSCKAERT THIERRY 03:55:12:000 D 138 0.00 PEGOMAS, FRANCE
597 2524 MAGNIER GREGORY 03:55:15:000 CF 32 0.00 CANNES LA BOCCA, FRANCE
598 2219 SAUVAYRE ERIC 03:59:11:000 D 139 0.00 LA LONDE LES MAURES, FRANCE
599 2504 LECENE CLAUDE 04:00:07:000 F 125 0.00 MAUGUIO, FRANCE
600 2357 LAILLIER MATHIAS 04:02:07:000 C 50 0.00 TOULON, FRANCE
601 2559 JEANTARD CARIL 04:02:27:000 D 140 0.00 LE PRADET, France
602 2558 PEDUZZI EMMANUEL 04:02:27:300 D 141 0.00 TOULON, FRANCE
603 2309 LOVERA PATRICE 04:02:28:000 D 142 0.00 TOULON, FRANCE
604 2552 GARCIA CLAUDE 04:05:13:000 E 147 0.00 GRASSE, FRANCE
605 2176 CHIOCANNI PHILIPPE 04:05:13:400 E 148 0.00 PEGOMAS, FRANCE
606 2230 PECCOLO JEAN MARIE 04:05:13:400 F 126 0.00 CANNES, FRANCE
607 2573 CARTIER ROBERT 04:06:00:000 G 79 0.00 STE MAXIME, FRANCE
608 2034 FISCHER MARYSE 04:08:42:500 AB 13 0.00 MONTEUX, FRANCE
609 2035 FISCHER DANIEL 04:08:43:000 F 127 0.00 MONTEUX, FRANCE
610 2519 BARALE JANINE 04:17:06:000 B 7 0.00 COGOLIN, FRANCE
611 2528 BEDDROH MARCEL 04:17:19:000 F 128 0.00 LE CASTELLET, FRANCE
612 2448 BOURRIOUX FABIEN 04:20:01:000 C 51 0.00 BEAUVAIS, FRANCE
613 2014 BOUCHER MICHEL 04:22:38:000 G 80 0.00 FORCALQUIER, FRANCE
614 2393 AUGUSTIN LIONEL 04:23:33:000 E 149 0.00 TOULON, FRANCE
615 2732 COLOMBEL CYRILLE 04:23:56:000 D 143 0.00 SAINT MAXIMIN LA SAINTE BAUME, FRANCE
616 2397 ALLARD ROGER 04:26:04:000 E 150 0.00 TOULON, FRANCE
617 2569 LAUGIER RENE 04:28:03:000 G 81 0.00 MONTELIMAR, FRANCE
618 2064 MARANDON JEAN CLAUDE 04:31:35:600 G 82 0.00 AIX LES BAINS, FRANCE
619 603 PESCHANG JACQUELINE 04:33:18:000 B 8 0.00 EPINAY SUR ORGE, FRANCE
620 602 PESCHANG MARCEL 04:33:29:000 F 129 0.00 EPINAY SUR ORGE, FRANCE
621 2507 DAX MARIE BLANCHE 04:36:49:000 B 9 0.00 BOULT AUX BOIS, FRANCE
622 2535 GAYRAL MARYSE 04:40:59:000 B 10 0.00 TOULON, FRANCE
623 2536 GAYRAL CLAUDE 04:41:04:000 G 83 0.00 TOULON, FRANCE
624 2460 COSTI FRANCOIS 04:41:08:000 G 84 0.00 ROQUEFORT LA BEDOULE, FRANCE
625 2543 AUGUSTE LOUIS 04:45:44:000 F 130 0.00 CABANNES, FRANCE
626 2506 DONADELLO MIREILLE 04:55:14:000 B 11 0.00 REGNEY, FRANCE
627 2572 LEROY PIERRE 05:21:56:000 G 85 0.00 AIX EN PROVENCE, FRANCE
628 2511 NEGRI GUY 05:26:12:000 G 86 0.00 DIGNE, FRANCE

GRANFONDO VOSGES

Nous sommes en contact depuis plusieurs jours avec les collectivités locales afin d'échanger sur la tenue de la Granfondo Vosges 2020 et voici ce qu'il en ressort :

-Vu la situation liée au Covid-19
-Vu le calendrier de fin de saison des cyclosportives.
-Vu le calendrier de la commune de La Bresse qui nous accueille.

Nous allons reporter La Granfondo Vosges au 27 Septembre 2020.

Pour les personnes déjà inscrites, vous n'avez rien à faire, votre inscription est automatiquement reportée.

Dans le cas où vous ne pourriez pas vous rendre disponibles à cette date là, vous pouvez nous le signaler et nous pourrons vous indiquer les conditions pour reporter votre inscription pour la Granfondo Vosges 2021.

Prenez soin de vous !
TOP